{"data":{"norad_id":49435,"epoch":"2026-09-20T04:00:03.000096Z","epoch_age_seconds":32943,"freshness":"FRESH","line1":"1 49435U 21104AD  26263.16670139  .00001186  00000+0  47394-4 0  9991","line2":"2 49435  53.1596  53.4303 0001284  65.8751 143.7695 15.33546970  5688","mean_motion":15.3354697,"eccentricity":0.0001284,"inclination_deg":53.1596,"raan_deg":53.4303,"arg_perigee_deg":65.8751,"mean_anomaly_deg":143.7695,"bstar":4.7394e-5,"rev_number":568,"period_min":93.89996056006,"perigee_km":464.36111073022,"apogee_km":466.11848989254,"semimajor_km":6843.3768003114,"source":"CELESTRAK","updated_at":"2026-09-20T09:00:39.260112Z"}}